Time,TemperatureF,DewpointF,PressureIn,WindDirection,WindDirectionDegrees,WindSpeedMPH,WindSpeedGustMPH,Humidity,HourlyPrecipIn,Conditions,Clouds,dailyrainin,SoftwareType,DateUTC
2013-08-08 00:04:00,63.0,54.1,30.00,NNE,32,0.0,3.4,73,0.00,,,0.00,WSDL version 420,2013-08-08 04:04:00,
2013-08-08 00:09:00,62.8,54.0,30.00,ENE,68,0.2,2.5,73,0.00,,,0.00,WSDL version 420,2013-08-08 04:09:00,
2013-08-08 00:14:00,62.8,54.0,30.00,NNE,23,1.8,2.9,73,0.00,,,0.00,WSDL version 420,2013-08-08 04:14:00,
2013-08-08 00:19:00,62.8,54.2,30.00,ENE,59,0.9,2.9,73,0.00,,,0.00,WSDL version 420,2013-08-08 04:19:00,
2013-08-08 00:24:00,62.8,54.0,30.00,WNW,301,0.5,2.5,73,0.00,,,0.00,WSDL version 420,2013-08-08 04:24:00,
2013-08-08 00:29:00,62.7,54.3,30.00,WNW,295,0.0,2.0,74,0.00,,,0.00,WSDL version 420,2013-08-08 04:29:00,
2013-08-08 00:34:00,62.6,54.2,30.00,NW,308,0.4,2.2,74,0.00,,,0.00,WSDL version 420,2013-08-08 04:34:00,
2013-08-08 00:39:00,62.6,54.2,30.00,NW,315,0.5,2.2,74,0.00,,,0.00,WSDL version 420,2013-08-08 04:39:00,
2013-08-08 00:44:00,62.6,54.2,30.00,WSW,250,0.8,2.0,74,-99.99,,,-99.99,WSDL version 420,2013-08-08 04:44:00,
2013-08-08 00:49:00,62.6,54.3,30.00,West,259,1.6,2.5,75,0.00,,,0.00,WSDL version 420,2013-08-08 04:49:00,
2013-08-08 00:54:00,62.7,54.3,30.00,ENE,71,2.1,2.7,74,0.00,,,0.00,WSDL version 420,2013-08-08 04:54:00,
2013-08-08 00:59:00,63.0,54.6,30.00,NNE,23,0.0,2.7,74,0.00,,,0.00,WSDL version 420,2013-08-08 04:59:00,
2013-08-08 01:04:00,63.0,54.7,29.97,East,80,2.5,4.3,74,0.00,,,0.00,WSDL version 420,2013-08-08 05:04:00,
2013-08-08 01:09:00,63.1,54.7,29.97,NE,49,1.0,5.8,74,0.00,,,0.00,WSDL version 420,2013-08-08 05:09:00,
2013-08-08 01:14:00,63.0,54.9,29.97,NNW,338,1.0,5.8,76,0.00,,,0.00,WSDL version 420,2013-08-08 05:14:00,
2013-08-08 01:21:00,62.8,55.1,29.97,North,357,0.0,2.5,76,0.00,,,0.00,WSDL version 420,2013-08-08 05:21:00,
2013-08-08 01:26:00,62.8,55.2,29.97,SE,143,0.6,2.5,77,0.00,,,0.00,WSDL version 420,2013-08-08 05:26:00,
2013-08-08 01:31:00,62.7,55.4,29.97,NNE,13,0.2,2.5,77,0.00,,,0.00,WSDL version 420,2013-08-08 05:31:00,
2013-08-08 01:36:00,62.6,55.3,29.97,NE,51,0.7,2.7,77,0.00,,,0.00,WSDL version 420,2013-08-08 05:36:00,
2013-08-08 01:41:00,62.6,55.3,29.97,NNW,334,0.3,2.7,77,0.00,,,0.00,WSDL version 420,2013-08-08 05:41:00,
2013-08-08 01:46:00,62.6,55.5,29.97,West,262,0.2,1.3,78,0.00,,,0.00,WSDL version 420,2013-08-08 05:46:00,
2013-08-08 01:51:00,62.6,55.7,29.97,North,357,0.2,2.0,78,0.00,,,0.00,WSDL version 420,2013-08-08 05:51:00,
2013-08-08 01:56:00,62.6,55.7,29.97,WNW,289,0.0,2.0,78,0.00,,,0.00,WSDL version 420,2013-08-08 05:56:00,
2013-08-08 02:01:00,62.6,55.7,29.97,WNW,293,0.6,2.0,78,0.00,,,0.00,WSDL version 420,2013-08-08 06:01:00,
2013-08-08 02:06:00,62.5,55.8,29.97,WNW,293,0.0,2.0,79,0.00,,,0.00,WSDL version 420,2013-08-08 06:06:00,
2013-08-08 02:11:00,62.4,55.8,29.97,WNW,293,0.0,0.0,79,0.00,,,0.00,WSDL version 420,2013-08-08 06:11:00,
2013-08-08 02:17:00,62.4,55.8,29.97,West,281,0.0,0.0,79,0.00,,,0.00,WSDL version 420,2013-08-08 06:17:00,
2013-08-08 02:22:00,62.4,55.8,29.97,West,270,0.0,0.0,79,0.00,,,0.00,WSDL version 420,2013-08-08 06:22:00,
2013-08-08 02:27:00,62.4,55.8,29.97,NE,45,0.0,1.3,79,0.00,,,0.00,WSDL version 420,2013-08-08 06:27:00,
2013-08-08 02:32:00,62.3,55.8,29.97,SW,225,0.0,1.6,79,0.00,,,0.00,WSDL version 420,2013-08-08 06:32:00,
2013-08-08 02:37:00,62.4,55.8,29.97,WSW,257,0.0,1.6,79,0.00,,,0.00,WSDL version 420,2013-08-08 06:37:00,
2013-08-08 02:42:00,62.4,56.1,29.97,NE,45,0.0,2.9,80,0.00,,,0.00,WSDL version 420,2013-08-08 06:42:00,
2013-08-08 02:47:00,62.6,56.1,29.97,ENE,64,1.4,3.4,80,0.00,,,0.00,WSDL version 420,2013-08-08 06:47:00,
2013-08-08 02:52:00,62.6,56.4,29.97,NW,325,0.0,3.4,80,0.00,,,0.00,WSDL version 420,2013-08-08 06:52:00,
2013-08-08 02:57:00,62.6,56.4,29.97,WNW,293,0.0,2.0,80,0.00,,,0.00,WSDL version 420,2013-08-08 06:57:00,
2013-08-08 03:02:00,62.6,56.4,29.97,WNW,283,0.0,1.3,81,0.00,,,0.00,WSDL version 420,2013-08-08 07:02:00,
2013-08-08 03:13:00,62.4,56.9,29.97,West,270,0.0,0.0,82,0.00,,,0.00,WSDL version 420,2013-08-08 07:13:00,
2013-08-08 03:18:00,62.4,56.9,29.97,West,270,0.0,0.0,82,0.00,,,0.00,WSDL version 420,2013-08-08 07:18:00,
2013-08-08 03:23:00,62.3,56.8,29.97,West,270,0.0,1.1,82,0.00,,,0.00,WSDL version 420,2013-08-08 07:23:00,
2013-08-08 03:28:00,62.2,56.8,29.97,West,270,0.0,1.1,82,0.00,,,0.00,WSDL version 420,2013-08-08 07:28:00,
2013-08-08 03:33:00,62.2,56.8,30.00,West,270,0.0,0.0,82,0.00,,,0.00,WSDL version 420,2013-08-08 07:33:00,
2013-08-08 03:38:00,62.2,56.8,30.00,West,270,0.7,1.6,82,-99.99,,,-99.99,WSDL version 420,2013-08-08 07:38:00,
2013-08-08 03:43:00,62.2,57.0,30.00,West,270,0.0,1.6,83,0.00,,,0.00,WSDL version 420,2013-08-08 07:43:00,
2013-08-08 03:48:00,62.2,57.1,29.97,West,270,0.0,1.3,83,0.00,,,0.00,WSDL version 420,2013-08-08 07:48:00,
2013-08-08 03:53:00,62.2,57.1,29.97,West,270,0.0,1.3,83,0.00,,,0.00,WSDL version 420,2013-08-08 07:53:00,
2013-08-08 03:58:00,62.1,57.0,29.97,West,270,0.0,1.3,83,0.00,,,0.00,WSDL version 420,2013-08-08 07:58:00,
2013-08-08 04:03:00,62.2,57.4,29.97,West,270,0.0,0.9,84,0.00,,,0.00,WSDL version 420,2013-08-08 08:03:00,
2013-08-08 04:13:00,62.2,57.6,29.97,WSW,238,0.5,2.9,86,0.00,,,0.00,WSDL version 420,2013-08-08 08:13:00,
2013-08-08 04:18:00,62.2,57.8,29.97,WSW,248,0.0,2.9,86,-99.99,,,-99.99,WSDL version 420,2013-08-08 08:18:00,
2013-08-08 04:23:00,62.3,57.9,29.97,ENE,70,0.1,2.9,86,0.00,,,0.00,WSDL version 420,2013-08-08 08:23:00,
2013-08-08 04:28:00,62.4,58.0,29.97,ENE,68,0.0,2.9,86,0.00,,,0.00,WSDL version 420,2013-08-08 08:28:00,
2013-08-08 04:33:00,62.4,58.1,29.97,NE,45,0.0,1.6,87,0.00,,,0.00,WSDL version 420,2013-08-08 08:33:00,
2013-08-08 04:38:00,62.3,58.3,29.97,NNE,30,0.0,1.6,87,-99.99,,,-99.99,WSDL version 420,2013-08-08 08:38:00,
2013-08-08 04:43:00,62.2,58.4,29.97,ESE,116,1.4,4.0,88,0.00,,,0.00,WSDL version 420,2013-08-08 08:43:00,
2013-08-08 04:48:00,62.4,58.8,29.94,East,82,0.9,4.0,88,0.00,,,0.00,WSDL version 420,2013-08-08 08:48:00,
2013-08-08 04:53:00,62.6,58.9,29.94,ENE,72,0.0,3.8,88,0.00,,,0.00,WSDL version 420,2013-08-08 08:53:00,
2013-08-08 04:58:00,62.6,58.9,29.94,NE,35,1.2,3.8,88,0.00,,,0.00,WSDL version 420,2013-08-08 08:58:00,
2013-08-08 05:03:00,62.4,58.9,29.97,East,94,0.0,3.6,89,0.00,,,0.00,WSDL version 420,2013-08-08 09:03:00,
2013-08-08 05:08:00,62.4,59.1,29.97,NNE,23,0.0,0.0,89,0.00,,,0.00,WSDL version 420,2013-08-08 09:08:00,
2013-08-08 05:13:00,62.4,59.1,29.97,West,274,0.0,3.1,89,0.00,,,0.00,WSDL version 420,2013-08-08 09:13:00,
2013-08-08 05:18:00,62.5,59.4,29.97,SSE,165,0.0,3.4,90,0.00,,,0.00,WSDL version 420,2013-08-08 09:18:00,
2013-08-08 05:23:00,62.6,59.4,29.97,NW,325,0.6,3.4,90,0.00,,,0.00,WSDL version 420,2013-08-08 09:23:00,
2013-08-08 05:28:00,62.8,60.0,29.97,SE,135,2.7,6.0,91,0.00,,,0.00,WSDL version 420,2013-08-08 09:28:00,
2013-08-08 05:33:00,63.1,60.5,29.94,ESE,115,2.2,6.0,91,0.00,,,0.00,WSDL version 420,2013-08-08 09:33:00,
2013-08-08 05:38:00,63.2,60.6,29.94,East,88,1.4,4.0,91,0.00,,,0.00,WSDL version 420,2013-08-08 09:38:00,
2013-08-08 05:43:00,63.3,60.7,29.94,ESE,103,1.0,3.6,91,0.00,,,0.00,WSDL version 420,2013-08-08 09:43:00,
2013-08-08 05:48:00,63.5,60.9,29.94,NE,39,1.8,4.7,91,0.00,,,0.00,WSDL version 420,2013-08-08 09:48:00,
2013-08-08 05:53:00,63.5,60.9,29.94,ESE,122,3.1,5.6,91,0.00,,,0.00,WSDL version 420,2013-08-08 09:53:00,
2013-08-08 05:58:00,63.7,61.0,29.94,East,79,2.7,5.6,91,0.00,,,0.00,WSDL version 420,2013-08-08 09:58:00,
2013-08-08 06:03:00,63.7,61.0,29.94,ESE,105,2.6,4.7,91,-99.99,,,-99.99,WSDL version 420,2013-08-08 10:03:00,
2013-08-08 06:08:00,63.7,61.0,29.94,ENE,73,1.9,3.8,91,0.00,,,0.00,WSDL version 420,2013-08-08 10:08:00,
2013-08-08 06:13:00,63.7,61.0,29.94,ESE,106,1.5,6.3,91,0.00,,,0.00,WSDL version 420,2013-08-08 10:13:00,
2013-08-08 06:23:00,63.7,61.0,29.94,South,172,2.6,4.9,91,0.00,,,0.00,WSDL version 420,2013-08-08 10:23:00,
2013-08-08 06:28:00,63.7,61.3,29.94,North,6,0.6,5.6,92,0.00,,,0.00,WSDL version 420,2013-08-08 10:28:00,
2013-08-08 06:33:00,63.8,61.4,29.94,South,177,2.0,5.6,91,0.00,,,0.00,WSDL version 420,2013-08-08 10:33:00,
2013-08-08 06:38:00,63.7,61.3,29.94,NE,45,1.5,5.4,92,0.00,,,0.00,WSDL version 420,2013-08-08 10:38:00,
2013-08-08 06:45:00,63.8,61.5,29.94,ESE,116,2.5,5.4,92,0.00,,,0.00,WSDL version 420,2013-08-08 10:45:00,
2013-08-08 06:50:00,63.9,61.6,29.97,SE,135,2.5,4.7,92,0.00,,,0.00,WSDL version 420,2013-08-08 10:50:00,
2013-08-08 06:55:00,63.9,61.6,29.97,SSE,149,1.1,4.0,92,0.00,,,0.00,WSDL version 420,2013-08-08 10:55:00,
2013-08-08 07:00:00,63.9,61.6,29.97,ESE,108,2.8,5.6,92,0.00,,,0.00,WSDL version 420,2013-08-08 11:00:00,
2013-08-08 07:05:00,64.0,61.7,29.97,ESE,106,3.1,5.6,92,0.00,,,0.00,WSDL version 420,2013-08-08 11:05:00,
2013-08-08 07:10:00,64.0,61.7,29.97,ENE,71,0.4,4.9,92,0.00,,,0.00,WSDL version 420,2013-08-08 11:10:00,
2013-08-08 07:15:00,64.0,61.7,29.97,West,279,0.0,2.7,92,0.00,,,0.00,WSDL version 420,2013-08-08 11:15:00,
2013-08-08 07:20:00,64.0,61.7,29.97,East,90,1.7,3.4,92,0.00,,,0.00,WSDL version 420,2013-08-08 11:20:00,
2013-08-08 07:25:00,64.0,62.1,29.97,East,93,2.5,3.8,93,-99.99,,,-99.99,WSDL version 420,2013-08-08 11:25:00,
2013-08-08 07:30:00,64.0,62.1,29.97,ENE,70,2.3,8.1,93,0.00,,,0.00,WSDL version 420,2013-08-08 11:30:00,
2013-08-08 07:35:00,64.0,62.2,29.97,ENE,73,3.0,8.1,94,0.00,,,0.00,WSDL version 420,2013-08-08 11:35:00,
2013-08-08 07:40:00,64.0,62.2,29.97,SSE,150,2.4,6.0,94,0.00,,,0.00,WSDL version 420,2013-08-08 11:40:00,
2013-08-08 07:45:00,64.1,62.5,29.97,ESE,113,3.1,6.5,94,0.00,,,0.00,WSDL version 420,2013-08-08 11:45:00,
2013-08-08 07:50:00,64.2,62.5,29.97,East,100,2.5,6.5,94,0.00,,,0.00,WSDL version 420,2013-08-08 11:50:00,
2013-08-08 07:55:00,64.2,62.6,29.97,North,8,2.3,5.4,94,0.00,,,0.00,WSDL version 420,2013-08-08 11:55:00,
2013-08-08 08:00:00,64.2,62.6,29.97,East,94,3.1,6.0,94,0.00,,,0.00,WSDL version 420,2013-08-08 12:00:00,
2013-08-08 08:05:00,64.2,62.6,29.94,SSE,165,1.9,6.0,94,0.00,,,0.00,WSDL version 420,2013-08-08 12:05:00,
2013-08-08 08:10:00,64.2,62.6,29.94,ESE,116,2.7,5.8,94,0.00,,,0.00,WSDL version 420,2013-08-08 12:10:00,
2013-08-08 08:15:00,64.2,62.6,29.94,SSW,209,2.6,4.3,94,0.00,,,0.00,WSDL version 420,2013-08-08 12:15:00,
2013-08-08 08:20:00,64.3,62.6,29.94,SE,127,2.7,7.4,93,0.00,,,0.00,WSDL version 420,2013-08-08 12:20:00,
2013-08-08 08:25:00,64.4,62.7,29.94,ESE,113,2.5,7.4,94,0.00,,,0.00,WSDL version 420,2013-08-08 12:25:00,
2013-08-08 08:30:00,64.6,62.9,29.94,SSW,207,2.5,5.6,94,0.00,,,0.00,WSDL version 420,2013-08-08 12:30:00,
2013-08-08 08:35:00,64.7,63.1,29.94,South,173,3.1,7.4,94,0.00,,,0.00,WSDL version 420,2013-08-08 12:35:00,
2013-08-08 08:40:00,64.8,63.1,29.94,SSE,158,3.8,7.4,94,0.00,,,0.00,WSDL version 420,2013-08-08 12:40:00,
2013-08-08 08:45:00,64.9,63.3,29.94,ESE,104,4.1,6.7,94,0.00,,,0.00,WSDL version 420,2013-08-08 12:45:00,
2013-08-08 08:50:00,65.1,63.5,29.97,SE,132,4.3,7.4,94,0.00,,,0.00,WSDL version 420,2013-08-08 12:50:00,
2013-08-08 08:55:00,65.1,63.1,29.97,ENE,61,2.3,7.4,93,0.00,,,0.00,WSDL version 420,2013-08-08 12:55:00,
2013-08-08 09:05:00,65.5,63.5,29.97,South,169,2.3,6.5,93,0.00,,,0.00,WSDL version 420,2013-08-08 13:05:00,
2013-08-08 09:10:00,65.5,63.5,29.97,SSW,209,3.3,6.5,93,0.00,,,0.00,WSDL version 420,2013-08-08 13:10:00,
2013-08-08 09:15:00,65.8,63.9,29.97,WNW,286,2.8,5.6,93,0.00,,,0.00,WSDL version 420,2013-08-08 13:15:00,
2013-08-08 09:20:00,66.6,64.6,29.97,SSE,160,4.3,8.7,93,0.00,,,0.00,WSDL version 420,2013-08-08 13:20:00,
2013-08-08 09:25:00,66.7,64.4,29.97,WNW,296,2.8,8.7,92,0.00,,,0.00,WSDL version 420,2013-08-08 13:25:00,
2013-08-08 09:30:00,66.8,64.2,29.97,South,191,2.6,7.8,91,0.00,,,0.00,WSDL version 420,2013-08-08 13:30:00,
2013-08-08 09:35:00,67.0,64.0,29.97,WSW,244,3.4,7.8,90,0.00,,,0.00,WSDL version 420,2013-08-08 13:35:00,
2013-08-08 09:40:00,67.3,64.4,29.97,SE,135,2.9,7.4,90,0.00,,,0.00,WSDL version 420,2013-08-08 13:40:00,
2013-08-08 09:45:00,67.6,64.6,29.97,East,98,4.2,7.6,90,0.00,,,0.00,WSDL version 420,2013-08-08 13:45:00,
2013-08-08 09:50:00,67.6,64.1,29.97,SE,146,3.8,7.6,88,0.00,,,0.00,WSDL version 420,2013-08-08 13:50:00,
2013-08-08 09:55:00,67.6,63.9,29.97,ESE,120,3.6,7.8,88,0.00,,,0.00,WSDL version 420,2013-08-08 13:55:00,
2013-08-08 10:00:00,67.9,64.1,29.97,SSW,199,3.4,9.4,88,0.00,,,0.00,WSDL version 420,2013-08-08 14:00:00,
2013-08-08 10:05:00,68.1,64.1,29.97,South,169,4.2,11.0,88,-99.99,,,-99.99,WSDL version 420,2013-08-08 14:05:00,
2013-08-08 10:10:00,68.1,63.7,29.97,West,260,4.9,11.0,86,0.00,,,0.00,WSDL version 420,2013-08-08 14:10:00,
2013-08-08 10:15:00,68.0,63.7,29.97,SSE,161,4.2,9.4,87,0.00,,,0.00,WSDL version 420,2013-08-08 14:15:00,
2013-08-08 10:20:00,67.7,63.5,29.97,SE,132,4.7,7.8,87,0.00,,,0.00,WSDL version 420,2013-08-08 14:20:00,
2013-08-08 10:25:00,67.6,63.6,29.97,ESE,122,5.0,8.1,88,0.00,,,0.00,WSDL version 420,2013-08-08 14:25:00,
2013-08-08 10:30:00,67.6,63.9,29.97,SW,228,4.1,12.3,88,0.00,,,0.00,WSDL version 420,2013-08-08 14:30:00,
2013-08-08 10:35:00,67.5,63.8,29.97,South,172,3.9,12.3,88,0.00,,,0.00,WSDL version 420,2013-08-08 14:35:00,
2013-08-08 10:40:00,67.6,64.0,29.97,SE,135,4.0,7.2,89,0.00,,,0.00,WSDL version 420,2013-08-08 14:40:00,
2013-08-08 10:45:00,68.1,64.4,29.97,East,79,4.6,8.5,88,0.00,,,0.00,WSDL version 420,2013-08-08 14:45:00,
2013-08-08 10:50:00,68.4,64.4,29.97,SE,139,3.5,8.5,87,0.00,,,0.00,WSDL version 420,2013-08-08 14:50:00,
2013-08-08 10:55:00,68.7,64.4,29.97,ESE,122,3.9,6.5,86,0.00,,,0.00,WSDL version 420,2013-08-08 14:55:00,
2013-08-08 11:00:00,68.7,64.0,29.97,East,90,4.3,8.5,84,0.00,,,0.00,WSDL version 420,2013-08-08 15:00:00,
2013-08-08 11:05:00,68.7,64.0,29.97,West,267,4.9,8.5,84,0.00,,,0.00,WSDL version 420,2013-08-08 15:05:00,
2013-08-08 11:10:00,69.1,64.2,29.97,ESE,104,4.2,7.2,84,-99.99,,,-99.99,WSDL version 420,2013-08-08 15:10:00,
2013-08-08 11:15:00,69.6,64.7,29.97,SE,132,4.3,9.6,84,0.00,,,0.00,WSDL version 420,2013-08-08 15:15:00,
2013-08-08 11:20:00,69.9,64.1,29.97,South,176,4.7,9.6,82,0.00,,,0.00,WSDL version 420,2013-08-08 15:20:00,
2013-08-08 11:25:00,70.1,64.0,29.97,SSE,160,3.2,7.6,80,0.00,,,0.00,WSDL version 420,2013-08-08 15:25:00,
2013-08-08 11:30:00,70.2,64.0,29.97,SE,132,3.2,9.6,81,0.00,,,0.00,WSDL version 420,2013-08-08 15:30:00,
2013-08-08 11:36:00,70.2,63.9,29.97,SSE,158,4.0,9.8,80,0.00,,,0.00,WSDL version 420,2013-08-08 15:36:00,
2013-08-08 11:41:00,70.3,64.0,29.97,ENE,62,4.8,10.1,80,0.00,,,0.00,WSDL version 420,2013-08-08 15:41:00,
2013-08-08 11:46:00,70.6,64.2,29.97,East,98,3.7,10.1,80,0.00,,,0.00,WSDL version 420,2013-08-08 15:46:00,
2013-08-08 11:51:00,70.7,64.2,29.97,SSE,161,3.2,8.5,80,0.00,,,0.00,WSDL version 420,2013-08-08 15:51:00,
2013-08-08 11:56:00,70.8,64.2,29.97,West,280,2.9,6.3,80,0.00,,,0.00,WSDL version 420,2013-08-08 15:56:00,
2013-08-08 12:01:00,70.8,64.2,29.97,ESE,109,4.7,7.8,79,-99.99,,,-99.99,WSDL version 420,2013-08-08 16:01:00,
2013-08-08 12:11:00,71.1,64.4,29.97,SE,132,3.8,7.6,79,0.00,,,0.00,WSDL version 420,2013-08-08 16:11:00,
2013-08-08 12:16:00,71.1,64.2,29.97,SE,135,2.6,8.1,79,0.00,,,0.00,WSDL version 420,2013-08-08 16:16:00,
2013-08-08 12:21:00,70.9,64.0,29.94,North,5,2.5,8.1,79,0.00,,,0.00,WSDL version 420,2013-08-08 16:21:00,
2013-08-08 12:26:00,70.9,64.0,29.94,NE,55,0.9,7.6,79,0.00,,,0.00,WSDL version 420,2013-08-08 16:26:00,
2013-08-08 12:31:00,70.9,64.0,29.94,East,84,3.3,7.8,79,0.00,,,0.00,WSDL version 420,2013-08-08 16:31:00,
2013-08-08 12:36:00,71.0,64.2,29.94,SE,143,3.0,8.5,79,0.00,,,0.00,WSDL version 420,2013-08-08 16:36:00,
2013-08-08 12:41:00,71.9,65.1,29.94,ESE,118,5.6,8.5,79,0.00,,,0.00,WSDL version 420,2013-08-08 16:41:00,
2013-08-08 12:46:00,72.9,65.6,29.91,East,84,4.0,8.1,78,0.00,,,0.00,WSDL version 420,2013-08-08 16:46:00,
2013-08-08 12:51:00,73.4,65.9,29.91,SSE,165,4.4,7.6,78,0.00,,,0.00,WSDL version 420,2013-08-08 16:51:00,
2013-08-08 12:56:00,73.3,64.8,29.91,West,264,3.6,6.5,75,0.00,,,0.00,WSDL version 420,2013-08-08 16:56:00,
2013-08-08 13:01:00,73.2,64.8,29.91,East,90,4.7,6.5,75,0.00,,,0.00,WSDL version 420,2013-08-08 17:01:00,
2013-08-08 13:06:00,73.2,64.4,29.91,East,86,4.7,8.5,74,0.00,,,0.00,WSDL version 420,2013-08-08 17:06:00,
2013-08-08 13:11:00,73.0,64.3,29.91,NE,56,2.3,8.7,74,-99.99,,,-99.99,WSDL version 420,2013-08-08 17:11:00,
2013-08-08 13:16:00,73.2,64.2,29.91,ESE,110,4.9,8.7,73,0.00,,,0.00,WSDL version 420,2013-08-08 17:16:00,
2013-08-08 13:21:00,73.3,63.9,29.91,ESE,122,5.2,8.5,72,0.00,,,0.00,WSDL version 420,2013-08-08 17:21:00,
2013-08-08 13:26:00,73.2,63.7,29.91,ENE,70,2.7,7.6,72,0.00,,,0.00,WSDL version 420,2013-08-08 17:26:00,
2013-08-08 13:31:00,73.3,64.1,29.91,South,186,3.0,6.5,73,0.00,,,0.00,WSDL version 420,2013-08-08 17:31:00,
2013-08-08 13:36:00,73.4,64.6,29.91,East,93,3.3,7.2,75,0.00,,,0.00,WSDL version 420,2013-08-08 17:36:00,
2013-08-08 13:41:00,74.0,65.1,29.91,SSE,161,3.5,8.1,74,0.00,,,0.00,WSDL version 420,2013-08-08 17:41:00,
2013-08-08 13:46:00,74.1,64.5,29.91,NNW,341,1.6,8.1,72,0.00,,,0.00,WSDL version 420,2013-08-08 17:46:00,
2013-08-08 13:51:00,74.1,64.6,29.91,SE,138,3.8,6.5,73,0.00,,,0.00,WSDL version 420,2013-08-08 17:51:00,
2013-08-08 13:56:00,74.3,64.6,29.91,NNW,331,3.9,6.5,72,0.00,,,0.00,WSDL version 420,2013-08-08 17:56:00,
2013-08-08 14:01:00,74.2,64.0,29.91,ENE,61,2.4,6.0,70,0.00,,,0.00,WSDL version 420,2013-08-08 18:01:00,
2013-08-08 14:06:00,73.9,64.4,29.91,East,98,0.7,6.0,72,0.00,,,0.00,WSDL version 420,2013-08-08 18:06:00,
2013-08-08 14:11:00,73.9,64.2,29.91,NNE,23,0.7,3.4,72,0.00,,,0.00,WSDL version 420,2013-08-08 18:11:00,
2013-08-08 14:16:00,74.0,64.4,29.91,East,90,2.6,4.9,72,0.00,,,0.00,WSDL version 420,2013-08-08 18:16:00,
2013-08-08 14:21:00,74.0,63.7,29.91,ESE,106,2.8,6.0,70,0.00,,,0.00,WSDL version 420,2013-08-08 18:21:00,
2013-08-08 14:26:00,74.1,64.0,29.91,East,101,0.9,6.0,71,-99.99,,,-99.99,WSDL version 420,2013-08-08 18:26:00,
2013-08-08 14:31:00,74.3,64.4,29.91,SE,135,1.4,4.9,71,0.00,,,0.00,WSDL version 420,2013-08-08 18:31:00,
2013-08-08 14:36:00,74.6,64.3,29.88,ESE,116,4.4,6.0,70,0.00,,,0.00,WSDL version 420,2013-08-08 18:36:00,
2013-08-08 14:41:00,74.5,64.1,29.88,WSW,257,1.7,6.0,70,0.00,,,0.00,WSDL version 420,2013-08-08 18:41:00,
2013-08-08 14:46:00,74.4,63.8,29.88,NE,35,1.4,4.7,70,0.00,,,0.00,WSDL version 420,2013-08-08 18:46:00,
2013-08-08 14:51:00,74.0,63.6,29.91,ENE,68,1.0,4.7,70,0.00,,,0.00,WSDL version 420,2013-08-08 18:51:00,
2013-08-08 14:56:00,73.6,63.4,29.91,WSW,257,0.4,2.9,71,0.00,,,0.00,WSDL version 420,2013-08-08 18:56:00,
2013-08-08 15:01:00,73.3,63.9,29.91,SW,229,0.0,2.9,73,0.00,,,0.00,WSDL version 420,2013-08-08 19:01:00,
2013-08-08 15:11:00,72.6,64.5,29.91,SE,139,1.7,3.6,76,-99.99,,,-99.99,WSDL version 420,2013-08-08 19:11:00,
2013-08-08 15:16:00,72.3,64.6,29.91,West,270,2.6,3.6,77,0.00,,,0.00,WSDL version 420,2013-08-08 19:16:00,
2013-08-08 15:21:00,71.7,64.5,29.91,West,273,2.1,3.4,78,0.00,,,0.00,WSDL version 420,2013-08-08 19:21:00,
2013-08-08 15:26:00,71.3,64.8,29.91,SW,214,0.0,2.7,81,0.00,,,0.00,WSDL version 420,2013-08-08 19:26:00,
2013-08-08 15:31:00,70.8,64.9,29.91,West,270,1.8,2.7,82,-99.99,,,-99.99,WSDL version 420,2013-08-08 19:31:00,
2013-08-08 15:36:00,70.7,65.8,29.91,NNW,345,0.0,2.7,86,0.00,,,0.00,WSDL version 420,2013-08-08 19:36:00,
2013-08-08 15:41:00,70.9,66.3,29.91,WSW,248,0.3,2.5,86,0.00,,,0.00,WSDL version 420,2013-08-08 19:41:00,
2013-08-08 15:46:00,71.1,66.9,29.91,West,263,1.5,2.9,88,0.00,,,0.00,WSDL version 420,2013-08-08 19:46:00,
2013-08-08 15:51:00,71.5,67.7,29.91,WNW,288,2.2,3.8,88,0.00,,,0.00,WSDL version 420,2013-08-08 19:51:00,
2013-08-08 15:57:00,71.8,68.3,29.91,South,180,3.0,6.5,89,0.00,,,0.00,WSDL version 420,2013-08-08 19:57:00,
2013-08-08 16:06:00,71.6,68.1,29.91,NE,45,0.3,6.0,89,0.00,,,0.00,WSDL version 420,2013-08-08 20:06:00,
2013-08-08 16:11:00,71.6,68.4,29.91,NE,45,0.0,2.5,90,0.00,,,0.00,WSDL version 420,2013-08-08 20:11:00,
2013-08-08 16:16:00,71.4,68.4,29.91,East,90,0.0,0.0,91,0.00,,,0.00,WSDL version 420,2013-08-08 20:16:00,
2013-08-08 16:21:00,71.2,68.5,29.91,SSW,203,0.0,1.6,91,-99.99,,,-99.99,WSDL version 420,2013-08-08 20:21:00,
2013-08-08 16:26:00,71.2,68.5,29.91,SSW,203,0.0,1.6,91,0.00,,,0.00,WSDL version 420,2013-08-08 20:26:00,
2013-08-08 16:31:00,71.3,68.6,29.91,SSW,203,0.0,0.0,91,0.00,,,0.00,WSDL version 420,2013-08-08 20:31:00,
2013-08-08 16:36:00,71.8,69.0,29.91,NNE,23,1.5,3.1,91,0.00,,,0.00,WSDL version 420,2013-08-08 20:36:00,
2013-08-08 16:41:00,72.4,69.6,29.91,NNE,23,2.1,3.6,91,0.00,,,0.00,WSDL version 420,2013-08-08 20:41:00,
2013-08-08 16:46:00,72.4,69.6,29.91,NNE,23,2.1,3.6,91,0.00,,,0.00,WSDL version 420,2013-08-08 20:46:00,
2013-08-08 16:51:00,73.0,70.3,29.91,NE,43,2.0,3.1,91,-99.99,,,-99.99,WSDL version 420,2013-08-08 20:51:00,
2013-08-08 16:56:00,73.3,70.3,29.91,NNE,28,1.5,4.9,90,0.00,,,0.00,WSDL version 420,2013-08-08 20:56:00,
2013-08-08 17:01:00,73.4,69.6,29.91,NE,45,2.5,4.9,87,0.00,,,0.00,WSDL version 420,2013-08-08 21:01:00,
2013-08-08 17:11:00,72.9,67.9,29.91,ESE,121,2.2,3.4,84,0.00,,,0.00,WSDL version 420,2013-08-08 21:11:00,
2013-08-08 17:16:00,72.6,67.6,29.91,East,90,0.0,2.7,84,0.00,,,0.00,WSDL version 420,2013-08-08 21:16:00,
2013-08-08 17:21:00,72.4,67.6,29.91,East,90,0.0,1.6,86,0.00,,,0.00,WSDL version 420,2013-08-08 21:21:00,
2013-08-08 17:26:00,72.1,67.7,29.91,East,90,0.0,1.3,87,0.00,,,0.00,WSDL version 420,2013-08-08 21:26:00,
2013-08-08 17:31:00,72.0,68.1,29.91,West,270,1.4,2.2,88,0.00,,,0.00,WSDL version 420,2013-08-08 21:31:00,
2013-08-08 17:53:00,72.0,69.0,29.88,NE,35,0.0,0.9,91,0.00,,,0.00,WSDL version 420,2013-08-08 21:53:00,
2013-08-08 18:00:00,72.0,69.0,29.88,NE,56,1.4,2.5,90,0.00,,,0.00,WSDL version 420,2013-08-08 22:00:00,
2013-08-08 18:06:00,72.0,68.9,29.91,ENE,68,2.2,2.7,90,0.00,,,0.00,WSDL version 420,2013-08-08 22:06:00,
2013-08-08 18:11:00,71.8,68.7,29.91,North,353,1.5,3.4,90,0.00,,,0.00,WSDL version 420,2013-08-08 22:11:00,
2013-08-08 18:16:00,71.8,68.5,29.91,NE,39,0.5,3.4,89,0.00,,,0.00,WSDL version 420,2013-08-08 22:16:00,
2013-08-08 18:21:00,71.8,68.3,29.91,East,96,2.4,3.4,89,0.00,,,0.00,WSDL version 420,2013-08-08 22:21:00,
2013-08-08 18:26:00,71.6,67.9,29.91,NE,45,0.5,3.4,88,0.00,,,0.00,WSDL version 420,2013-08-08 22:26:00,
2013-08-08 18:33:00,71.6,68.2,29.91,NE,45,0.4,2.0,89,0.00,,,0.00,WSDL version 420,2013-08-08 22:33:00,
2013-08-08 18:38:00,71.5,68.2,29.91,NE,45,0.0,1.1,90,0.00,,,0.00,WSDL version 420,2013-08-08 22:38:00,
2013-08-08 18:43:00,71.3,68.4,29.91,NE,45,0.0,1.1,90,0.00,,,0.00,WSDL version 420,2013-08-08 22:43:00,
2013-08-08 18:48:00,71.2,68.2,29.91,SSE,167,0.5,1.3,90,0.00,,,0.00,WSDL version 420,2013-08-08 22:48:00,
2013-08-08 18:53:00,71.1,68.0,29.91,SSE,158,0.0,2.2,90,0.00,,,0.00,WSDL version 420,2013-08-08 22:53:00,
2013-08-08 18:58:00,70.9,67.9,29.91,South,169,0.0,2.2,91,0.00,,,0.00,WSDL version 420,2013-08-08 22:58:00,
2013-08-08 19:03:00,70.6,67.8,29.91,South,180,0.0,0.0,91,0.00,,,0.00,WSDL version 420,2013-08-08 23:03:00,
2013-08-08 19:08:00,70.3,67.6,29.91,South,180,0.0,0.0,91,0.00,,,0.00,WSDL version 420,2013-08-08 23:08:00,
2013-08-08 19:13:00,70.2,67.4,29.91,SW,225,1.1,1.6,91,0.00,,,0.00,WSDL version 420,2013-08-08 23:13:00,
2013-08-08 19:20:00,69.9,67.5,29.88,SW,225,0.0,2.0,92,0.00,,,0.00,WSDL version 420,2013-08-08 23:20:00,
2013-08-08 19:25:00,69.6,67.3,29.88,SW,225,0.0,1.3,92,0.00,,,0.00,WSDL version 420,2013-08-08 23:25:00,
2013-08-08 19:30:00,69.5,67.3,29.88,SW,225,0.0,1.6,93,0.00,,,0.00,WSDL version 420,2013-08-08 23:30:00,
2013-08-08 19:35:00,69.4,67.3,29.91,SW,225,0.0,1.6,93,-99.99,,,-99.99,WSDL version 420,2013-08-08 23:35:00,
2013-08-08 19:42:00,69.3,67.3,29.91,SW,225,0.0,0.0,93,0.00,,,0.00,WSDL version 420,2013-08-08 23:42:00,
2013-08-08 19:47:00,69.1,67.1,29.91,SW,225,0.0,1.3,93,0.00,,,0.00,WSDL version 420,2013-08-08 23:47:00,
2013-08-08 19:54:00,69.0,67.3,29.91,SW,225,0.0,1.1,94,0.00,,,0.00,WSDL version 420,2013-08-08 23:54:00,
2013-08-08 19:59:00,68.9,67.2,29.91,SW,225,0.0,0.0,94,0.00,,,0.00,WSDL version 420,2013-08-08 23:59:00,
2013-08-08 20:04:00,68.8,67.1,29.91,SW,225,0.0,0.0,94,0.00,,,0.00,WSDL version 420,2013-08-09 00:04:00,
2013-08-08 20:09:00,68.7,67.1,29.91,SW,225,0.0,0.0,94,0.00,,,0.00,WSDL version 420,2013-08-09 00:09:00,
2013-08-08 20:14:00,68.5,66.9,29.91,SW,225,0.2,1.3,94,0.00,,,0.00,WSDL version 420,2013-08-09 00:14:00,
2013-08-08 20:19:00,68.5,67.1,29.91,SW,225,0.4,1.3,96,0.00,,,0.00,WSDL version 420,2013-08-09 00:19:00,
2013-08-08 20:24:00,68.4,67.1,29.91,SW,225,0.0,1.3,96,0.00,,,0.00,WSDL version 420,2013-08-09 00:24:00,
2013-08-08 20:30:00,68.2,66.9,29.91,SW,225,0.7,1.6,96,-99.99,,,-99.99,WSDL version 420,2013-08-09 00:30:00,
2013-08-08 20:35:00,68.2,66.9,29.94,SW,225,0.9,2.2,96,0.00,,,0.00,WSDL version 420,2013-08-09 00:35:00,
2013-08-08 20:40:00,68.0,66.7,29.94,SW,225,2.0,2.5,96,0.00,,,0.00,WSDL version 420,2013-08-09 00:40:00,
2013-08-08 20:45:00,68.0,66.7,29.94,SW,225,0.5,2.5,96,0.00,,,0.00,WSDL version 420,2013-08-09 00:45:00,
2013-08-08 20:54:00,67.8,66.8,29.94,SW,225,1.8,2.0,97,0.00,,,0.00,WSDL version 420,2013-08-09 00:54:00,
2013-08-08 20:59:00,67.8,66.8,29.94,SW,225,0.0,2.0,97,0.00,,,0.00,WSDL version 420,2013-08-09 00:59:00,
2013-08-08 21:04:00,67.8,66.8,29.91,SW,214,0.4,2.0,97,0.00,,,0.00,WSDL version 420,2013-08-09 01:04:00,
2013-08-08 21:09:00,67.6,66.7,29.91,SSW,203,1.5,2.2,97,0.00,,,0.00,WSDL version 420,2013-08-09 01:09:00,
2013-08-08 21:14:00,67.6,66.7,29.91,SW,225,0.3,2.2,97,0.00,,,0.00,WSDL version 420,2013-08-09 01:14:00,
2013-08-08 21:19:00,67.6,66.6,29.94,SSW,203,1.0,2.2,97,0.00,,,0.00,WSDL version 420,2013-08-09 01:19:00,
2013-08-08 21:26:00,67.5,66.5,29.94,SSW,203,2.1,2.5,97,0.00,,,0.00,WSDL version 420,2013-08-09 01:26:00,
2013-08-08 21:31:00,67.5,66.5,29.94,SSW,203,1.1,2.5,97,0.00,,,0.00,WSDL version 420,2013-08-09 01:31:00,
2013-08-08 21:36:00,67.3,66.5,29.91,SSW,203,0.0,2.0,98,0.00,,,0.00,WSDL version 420,2013-08-09 01:36:00,
2013-08-08 21:43:00,67.3,66.6,29.91,SSW,203,0.0,0.9,98,0.00,,,0.00,WSDL version 420,2013-08-09 01:43:00,
2013-08-08 21:48:00,67.2,66.5,29.91,SSW,203,0.0,0.0,98,0.00,,,0.00,WSDL version 420,2013-08-09 01:48:00,
2013-08-08 21:53:00,67.2,66.6,29.91,SSW,203,0.0,0.0,98,0.00,,,0.00,WSDL version 420,2013-08-09 01:53:00,
2013-08-08 21:58:00,67.3,66.6,29.91,SSW,203,1.2,1.6,98,0.00,,,0.00,WSDL version 420,2013-08-09 01:58:00,
2013-08-08 22:05:00,67.3,66.8,29.91,SW,225,1.5,2.0,99,0.00,,,0.00,WSDL version 420,2013-08-09 02:05:00,
2013-08-08 22:10:00,67.3,67.0,29.91,SW,225,1.0,2.0,99,0.00,,,0.00,WSDL version 420,2013-08-09 02:10:00,
2013-08-08 22:15:00,67.2,66.9,29.91,SW,225,1.5,2.0,99,0.00,,,0.00,WSDL version 420,2013-08-09 02:15:00,
2013-08-08 22:20:00,67.1,66.8,29.91,SSW,206,1.2,2.0,99,0.00,,,0.00,WSDL version 420,2013-08-09 02:20:00,
2013-08-08 22:28:00,67.0,66.7,29.91,SSW,203,1.2,2.5,99,0.00,,,0.00,WSDL version 420,2013-08-09 02:28:00,
2013-08-08 22:35:00,66.9,66.6,29.91,SSW,203,0.4,1.6,99,0.00,,,0.00,WSDL version 420,2013-08-09 02:35:00,
2013-08-08 22:40:00,66.7,66.4,29.91,SSW,203,0.0,1.6,99,0.00,,,0.00,WSDL version 420,2013-08-09 02:40:00,
2013-08-08 22:45:00,66.7,66.4,29.91,SSW,203,0.0,1.6,99,0.00,,,0.00,WSDL version 420,2013-08-09 02:45:00,
2013-08-08 22:50:00,66.7,66.4,29.91,SSW,203,0.0,0.0,99,0.00,,,0.00,WSDL version 420,2013-08-09 02:50:00,
2013-08-08 22:55:00,66.9,66.5,29.91,SSW,203,1.2,1.6,99,0.00,,,0.00,WSDL version 420,2013-08-09 02:55:00,
2013-08-08 23:05:00,67.1,67.1,29.91,SSW,203,0.0,0.9,100,0.00,,,0.00,WSDL version 420,2013-08-09 03:05:00,
2013-08-08 23:10:00,67.1,67.1,29.91,SSW,203,0.0,0.0,100,0.00,,,0.00,WSDL version 420,2013-08-09 03:10:00,
2013-08-08 23:15:00,67.1,67.1,29.91,SSW,203,0.0,0.0,100,0.00,,,0.00,WSDL version 420,2013-08-09 03:15:00,
2013-08-08 23:22:00,67.1,67.1,29.91,SSW,203,0.0,0.0,100,0.00,,,0.00,WSDL version 420,2013-08-09 03:22:00,
2013-08-08 23:27:00,66.9,66.9,29.91,SSW,203,0.3,1.3,100,0.00,,,0.00,WSDL version 420,2013-08-09 03:27:00,
2013-08-08 23:34:00,66.9,66.9,29.91,SSW,203,0.0,1.3,100,0.00,,,0.00,WSDL version 420,2013-08-09 03:34:00,
2013-08-08 23:39:00,66.7,66.7,29.91,SSW,203,0.0,1.3,100,0.00,,,0.00,WSDL version 420,2013-08-09 03:39:00,
2013-08-08 23:44:00,66.7,66.7,29.91,SSW,203,0.0,0.0,100,0.00,,,0.00,WSDL version 420,2013-08-09 03:44:00,
2013-08-08 23:49:00,66.7,66.7,29.91,SW,225,0.9,1.6,100,0.00,,,0.00,WSDL version 420,2013-08-09 03:49:00,
2013-08-08 23:56:00,66.6,66.6,29.91,SW,225,0.0,2.0,100,0.00,,,0.00,WSDL version 420,2013-08-09 03:56:00,